Flag for China Weather past 2 weeks in Taiyuan, Shanxi, China

Now
75 °F

Sunny.


Feels Like: 78 °F
Forecast: 60 / 87 °F
Wind: 1 mph from Southeast

Location: Taiyuan Airport

Current Time: Jul 26, 2014 at 9:04:18 AM

Latest Report: Jul 26, 2014 at 8:30 AM


Visibility: 10 mi

Pressure: 29.98 "Hg

Humidity: 50%

Dew point: 55 °F

Location of TaiyuanLocation

Historic Weather in Taiyuan — Graph

°F

Taiyuan temperature yesterday

Maximum temperature yesterday: 86 °F (at 3:00 PM)
Minimum temperature yesterday: 59 °F (at 4:00 AM)
Average temperature yesterday: 74 °F

Past Weeks' High & Low Weather Summary

 TemperatureHumidityPressure
High93 °F (Jul 17, 4:00 PM)94% (Jul 19, 7:30 PM)29.98 "Hg (Jul 19, 7:30 PM)
Low59 °F (Jul 13, 4:00 AM)24% (Jul 18, 4:30 PM)29.65 "Hg (Jul 16, 4:30 PM)
Average75 °F62%29.80 "Hg
* Reported Jul 11 8:00 AM — Jul 26 8:00 AM, Taiyuan, Weather by CustomWeather, © 2014

Note: Actual official high and low records may vary slightly from our data, if they occured in-between our weather recording intervals... More about our weather records

Advertising

Taiyuan weather history for previous 24 hours

 ConditionsComfort  
Time TempWeatherWind HumidityBarometerVisibility
8:00 AM
Jul 26
72 °FSunny.1 mph61%29.98 "Hg10 mi
7:30 AM70 °FSunny.1 mph60%29.98 "Hg10 mi
7:00 AM68 °FSunny.No wind69%29.95 "Hg10 mi
6:30 AM66 °FSunny.1 mph73%29.95 "Hg10 mi
6:00 AM63 °FSunny.3 mph77%29.95 "Hg10 mi
5:30 AM63 °FSunny.1 mph77%29.95 "Hg10 mi
5:00 AM61 °FClear.1 mph83%29.92 "Hg10 mi
4:30 AM63 °FClear.1 mph77%29.92 "Hg10 mi
4:00 AM64 °FClear.1 mph73%29.92 "Hg10 mi
3:30 AM64 °FClear.No wind68%29.92 "Hg10 mi
3:00 AM64 °FClear.3 mph68%29.92 "Hg10 mi
2:30 AM64 °FClear.3 mph73%29.89 "Hg10 mi
2:00 AM66 °FClear.3 mph68%29.89 "Hg10 mi
1:30 AM66 °FClear.No wind68%29.89 "Hg10 mi
1:00 AM68 °FClear.1 mph60%29.89 "Hg10 mi
12:30 AM70 °FClear.3 mph57%29.89 "Hg10 mi
12:00 AM72 °FClear.6 mph50%29.89 "Hg10 mi
11:30 PM
Jul 25
70 °FClear.6 mph57%29.89 "Hg10 mi
11:00 PM70 °FClear.3 mph57%29.89 "Hg10 mi
10:30 PM72 °FPassing clouds.3 mph57%29.89 "HgN/A
10:00 PM75 °FPassing clouds.6 mph47%29.86 "HgN/A
9:30 PM75 °FPassing clouds.6 mph54%29.86 "HgN/A
9:00 PM77 °FPassing clouds.6 mph54%29.86 "HgN/A
8:30 PM73 °FClear.1 mph61%29.83 "Hg10 mi
8:00 PM77 °FClear.1 mph51%29.83 "Hg10 mi
7:30 PM81 °FSunny.1 mph42%29.83 "Hg10 mi
7:00 PM82 °FSunny.3 mph40%29.80 "Hg10 mi
6:30 PM84 °FSunny.3 mph37%29.80 "Hg10 mi
6:00 PM84 °FPassing clouds.3 mph37%29.80 "HgN/A
5:30 PM86 °FScattered clouds.3 mph33%29.80 "HgN/A
5:00 PM86 °FScattered clouds.3 mph33%29.80 "HgN/A
4:30 PM86 °FScattered clouds.6 mph33%29.80 "HgN/A
4:00 PM86 °FPassing clouds.3 mph33%29.80 "HgN/A
3:30 PM86 °FPassing clouds.6 mph33%29.80 "HgN/A
3:00 PM86 °FPassing clouds.3 mph33%29.80 "HgN/A
2:30 PM84 °FPassing clouds.3 mph35%29.80 "HgN/A
2:00 PM84 °FPassing clouds.3 mph40%29.83 "HgN/A
1:30 PM82 °FPassing clouds.3 mph37%29.83 "HgN/A
1:00 PM82 °FPassing clouds.1 mph40%29.83 "HgN/A
12:30 PM81 °FPassing clouds.6 mph39%29.83 "HgN/A
12:00 PM81 °FSunny.1 mph37%29.83 "Hg10 mi
11:30 AM81 °FSunny.1 mph42%29.86 "Hg10 mi
10:30 AM79 °FSunny.1 mph42%29.86 "Hg10 mi
10:00 AM77 °FSunny.1 mph47%29.86 "Hg10 mi
9:30 AM73 °FSunny.1 mph53%29.86 "Hg10 mi
9:00 AM72 °FSunny.1 mph57%29.86 "Hg10 mi
Weather by CustomWeather, © 2014

See weather overviewHow to use our weather pages